Bryce Canyon, UT

11:20 AM MDT on March 30, 2017 (GMT -0600)
Bryce Canyon

Weather History for KBCE - September, 2012

Change the Weather History Date:

Wednesday, September 5, 2012

  Actual Average Record
Temperature  
Mean Temperature 60 °F -  
Max Temperature 80 °F 74 °F 82 °F (1978)
Min Temperature 43 °F 41 °F 27 °F (2004)
Degree Days  
Heating Degree Days 4    
Growing Degree Days 10 (Base 50)    
Moisture  
Dew Point 36 °F    
Average Humidity 50    
Maximum Humidity 86    
Minimum Humidity 15    
Precipitation  
Precipitation 0.00 in - - ()
Sea Level Pressure  
Sea Level Pressure 30.01 in    
Wind  
Wind Speed 6 mph (WSW)    
Max Wind Speed 13 mph    
Max Gust Speed 18 mph    
Visibility 10 miles    
Events      
Averages and records for this station are not official NWS values.
T = Trace of Precipitation, MM = Missing Value Source: NWS Daily Summary

Daily Weather History Graph

Daily Weather History Graph

Search for Another Location

Airport or City:

Trip Planner

Search our weather history database for the weather conditions in past years. The results will help you decide how hot, cold, wet, or windy it might be!

Date:

Astronomy

Sep. 05, 2012 Rise Set
Actual Time 7:02 AM MDT 7:50 PM MDT
Civil Twilight 6:35 AM MDT 8:17 PM MDT
Nautical Twilight 6:04 AM MDT 8:48 PM MDT
Astronomical Twilight 5:31 AM MDT 9:21 PM MDT
Moon 10:30 PM MDT (9/5) 12:03 PM MDT (9/5)
Length of Visible Light 13h 41m
Length of Day
12h 48m
Waning Gibbous, 75% of the Moon is Illuminated
Sep 5
Waning Gibbous
Sep 8
Last Quarter
Sep 15
New
Sep 22
First Quarter
Sep 29
Full

Hourly Weather History & Observations

Time (MDT) Temp. Windchill Dew Point Humidity Pressure Visibility Wind Dir Wind Speed Gust Speed Precip Events Conditions
12:53 AM 46.9 °F - 41.0 °F 80% 30.05 in 10.0 mi West 8.1 mph - N/A   Clear
1:53 AM 48.0 °F - 41.0 °F 77% 30.02 in 10.0 mi Calm Calm - N/A   Clear
2:53 AM 45.0 °F 42.6 °F 39.9 °F 82% 30.03 in 10.0 mi West 4.6 mph - N/A   Clear
3:53 AM 45.0 °F 41.2 °F 39.9 °F 82% 30.03 in 10.0 mi West 6.9 mph - N/A   Clear
4:53 AM 45.0 °F 40.6 °F 39.0 °F 80% 30.04 in 10.0 mi West 8.1 mph - N/A   Partly Cloudy
5:53 AM 43.0 °F 40.3 °F 39.0 °F 86% 30.05 in 10.0 mi West 4.6 mph - N/A   Partly Cloudy
6:53 AM 43.0 °F 41.3 °F 39.0 °F 86% 30.08 in 10.0 mi West 3.5 mph - N/A   Mostly Cloudy
7:53 AM 46.9 °F - 39.9 °F 77% 30.10 in 10.0 mi West 9.2 mph - N/A   Clear
8:53 AM 59.0 °F - 44.1 °F 58% 30.08 in 10.0 mi West 5.8 mph - N/A   Clear
9:53 AM 69.1 °F - 44.1 °F 40% 30.05 in 10.0 mi Calm Calm - N/A   Clear
10:53 AM 73.9 °F - 37.0 °F 26% 30.03 in 10.0 mi Variable 4.6 mph - N/A   Clear
11:53 AM 75.9 °F - 30.9 °F 19% 30.02 in 10.0 mi SW 8.1 mph - N/A   Scattered Clouds
12:53 PM 75.0 °F - 27.0 °F 17% 30.02 in 10.0 mi SW 6.9 mph - N/A   Clear
1:53 PM 77.0 °F - 25.0 °F 15% 29.99 in 10.0 mi South 12.7 mph 18.4 mph N/A   Partly Cloudy
2:53 PM 77.0 °F - 26.1 °F 15% 29.99 in 10.0 mi Variable 4.6 mph - N/A   Partly Cloudy
4:53 PM 78.1 °F - 27.0 °F 15% 29.94 in 10.0 mi South 12.7 mph - N/A   Clear
5:53 PM 75.9 °F - 27.0 °F 16% 29.94 in 10.0 mi Variable 4.6 mph - N/A   Clear
6:53 PM 72.0 °F - 35.1 °F 26% 29.96 in 10.0 mi SSW 10.4 mph - N/A   Clear
7:53 PM 64.9 °F - 37.0 °F 36% 29.98 in 10.0 mi SSW 5.8 mph - N/A   Clear
8:53 PM 60.1 °F - 37.0 °F 42% 29.97 in 10.0 mi Calm Calm - N/A   Clear
9:53 PM 55.0 °F - 39.0 °F 55% 29.96 in 10.0 mi West 5.8 mph - N/A   Clear
10:53 PM 54.0 °F - 39.9 °F 59% 29.95 in 10.0 mi West 4.6 mph - N/A   Clear
11:53 PM 52.0 °F - 39.0 °F 61% 29.95 in 10.0 mi West 8.1 mph - N/A   Clear